GEFSGL_850_meantemp_024.txt.gz
Temperature
12 12 12 11 11 10 10 9 8 8 8 7 7 6 6 6 6 5 5 5 4 4 4 4 3 3 3 3 3 4 4 4 4 3 3 2 2 1 1 1 1 1 1
11 11 11 10 10 9 9 8 8 7 7 6 6 6 5 5 5 4 4 4 3 3 3 3 3 3 2 2 2 2 2 2 2 2 2 2 1 1 1 1 1 1 1
10 10 10 9 9 8 8 7 7 6 6 5 5 5 5 4 4 4 3 3 2 2 2 2 2 2 2 2 1 1 1 1 1 1 1 1 1 1 1 1 1 1 1
9 9 8 8 7 7 6 6 6 5 5 5 5 4 4 3 3 3 2 2 2 2 1 1 1 1 1 1 1 1 1 1 1 0 1 1 1 1 1 1 1 1 1
8 8 7 7 6 6 6 5 5 5 4 4 4 3 3 3 2 2 2 1 1 1 1 1 1 1 1 0 0 -0 -0 0 0 0 0 1 1 1 0 0 0 0 0
7 6 6 6 6 5 5 4 4 4 4 3 3 2 2 2 2 2 2 1 1 1 1 1 1 0 0 -0 -0 -0 -0 -0 -0 0 0 0 0 0 0 0 0 0 0
6 5 5 5 5 4 4 4 3 3 2 2 2 2 1 1 2 1 1 1 0 0 0 0 0 0 -0 -0 -0 -0 -0 -0 -0 0 0 0 0 0 -0 -0 -0 -0 -0
5 4 4 4 4 3 3 3 2 2 2 1 1 1 1 0 1 1 1 0 0 0 0 0 -0 -0 -0 -1 -0 -0 0 0 0 0 0 0 0 0 -0 -0 -0 -0 -0
4 4 4 3 3 3 3 2 2 2 1 1 1 0 0 -0 0 0 0 -0 -0 -0 -0 -0 -0 -0 -1 -1 -0 0 0 1 1 0 0 0 -0 -0 -0 -0 -0 -0 -0
3 3 3 3 3 2 2 2 1 1 1 1 0 -0 -0 -1 -1 -0 -0 -1 -1 -0 -0 -0 -0 -1 -0 -0 -0 0 0 1 1 1 0 0 0 -0 -0 -0 -0 -0 -1
3 3 3 3 2 2 1 1 1 1 1 0 0 -0 -1 -1 -1 -1 -1 -1 -1 -1 -1 -0 -0 -0 -0 -0 0 0 0 0 0 0 0 0 -0 -0 -0 -0 -0 -0 -1
3 3 3 2 3 2 1 1 1 1 1 1 0 -0 -1 -1 -1 -2 -2 -2 -1 -1 -1 -1 -0 -0 0 0 0 1 1 1 1 0 0 -0 -0 -0 -0 -0 -0 -0 -0
3 3 3 2 2 2 2 2 2 1 1 1 1 0 -1 -1 -1 -2 -2 -2 -2 -1 -1 -1 -0 0 0 1 1 1 1 1 1 0 0 -0 -0 -1 -1 -1 -0 -0 -0
3 3 3 3 2 2 2 2 2 2 1 1 0 -0 -1 -1 -1 -2 -2 -2 -1 -1 -1 -0 -0 0 1 1 1 1 1 1 1 1 0 -0 -0 -1 -1 -1 -1 -1 -0
3 3 3 3 3 2 2 2 2 1 0 0 -0 -1 -1 -1 -2 -2 -2 -2 -2 -1 -1 -0 0 0 1 1 1 2 2 1 1 1 1 0 -0 -1 -1 -1 -1 -1 -1
3 3 4 3 3 3 3 2 1 1 1 0 -0 -1 -1 -2 -2 -2 -2 -1 -1 -1 -1 -0 -0 0 1 1 1 2 2 2 2 1 1 0 -0 -0 -1 -1 -1 -1 -0
4 4 4 4 3 3 3 3 2 1 0 -0 -1 -1 -1 -1 -1 -1 -1 -1 -1 -1 -0 -0 0 0 1 1 2 2 2 2 2 2 1 1 0 -0 -0 -0 -0 -0 -0
4 4 4 4 3 3 3 3 2 2 1 0 -1 -1 -1 -1 -1 -1 -1 -1 -1 -1 -0 -0 0 1 1 1 2 2 2 2 2 2 2 1 1 0 0 -0 -0 -0 -1
4 4 4 4 4 3 3 3 2 2 1 0 -0 -1 -1 -1 -1 -1 -1 -1 -1 -0 -0 0 0 1 1 2 2 2 2 2 3 2 2 2 1 1 0 0 -0 -0 -1
4 3 3 4 4 3 3 3 2 1 1 -0 -1 -1 -1 -1 -1 -1 -1 -1 -0 -0 0 0 1 1 2 2 2 2 3 3 3 3 3 2 2 2 1 1 0 0 0
4 4 3 4 3 3 3 2 2 1 0 -0 -1 -1 -1 -1 -1 -1 -1 -0 -0 -0 0 1 1 2 2 2 2 3 3 3 3 3 3 3 3 2 2 2 2 1 1
4 4 4 3 3 2 2 2 1 1 0 -0 -1 -1 -1 -1 -1 -1 -0 -0 0 0 1 1 2 2 2 2 3 3 3 3 3 3 3 3 3 3 3 3 3 3 3
4 4 3 3 2 1 2 1 1 1 0 -0 -0 -1 -1 -1 -1 -0 -0 0 0 1 1 1 2 2 2 3 3 3 3 3 3 3 4 4 4 4 4 4 3 3 3
4 3 3 3 2 2 2 1 1 1 1 0 -0 -0 -0 -0 -0 -0 -0 0 1 1 1 2 2 2 3 3 3 4 4 4 4 4 4 4 4 4 4 4 4 4 4
3 3 2 2 2 2 2 1 1 1 0 0 -0 -0 -0 -0 -0 -0 0 0 1 1 1 2 2 3 3 4 4 4 4 4 4 4 4 4 4 4 4 4 5 5 5
3 2 2 2 2 1 1 1 1 0 0 -0 -0 -0 -0 -0 -0 0 0 1 1 1 2 2 2 3 3 4 4 4 4 4 4 4 4 5 5 4 5 5 5 5 5

GEFSGL_850_meantemp_030.txt.gz
Temperature
12 12 12 11 11 11 10 10 9 9 9 9 8 8 8 7 7 7 7 6 6 6 5 5 5 5 4 4 4 4 4 4 4 4 3 3 3 3 3 3 3 3 2
11 11 11 10 10 10 9 9 8 8 8 8 7 7 7 7 6 6 6 6 5 5 5 4 4 4 4 3 3 3 3 3 3 2 2 2 2 2 2 2 2 2 2
11 10 10 10 9 9 8 8 8 7 7 7 7 6 6 6 5 5 5 5 4 4 4 3 3 3 3 2 2 2 2 2 2 1 1 2 2 2 2 2 2 2 2
10 9 9 9 8 8 8 7 7 7 7 6 6 6 5 5 5 5 4 4 3 3 3 3 3 2 2 2 2 1 1 1 1 1 1 1 1 2 2 1 1 1 1
9 8 8 7 7 7 7 7 6 6 6 5 5 5 5 4 4 4 4 4 3 3 3 2 2 2 2 2 1 1 1 1 1 1 1 1 1 1 1 1 1 1 1
8 7 7 7 6 6 6 6 5 5 5 5 4 4 4 4 4 3 3 3 3 3 2 2 2 2 2 1 1 1 1 1 1 1 1 1 1 1 1 1 1 1 1
7 7 6 6 6 5 5 5 5 4 4 4 3 3 3 3 3 3 3 3 3 2 1 1 1 1 1 1 1 1 1 1 1 1 1 1 1 1 1 1 0 0 0
6 6 5 5 5 5 4 4 4 4 3 3 3 2 2 2 2 2 2 2 1 1 1 1 1 1 1 1 1 1 2 2 2 1 1 1 1 1 0 0 0 0 0
5 5 5 5 4 4 4 4 3 3 3 3 2 2 2 1 1 1 1 1 1 1 1 1 1 1 1 1 1 1 2 2 2 2 1 1 1 1 0 0 0 0 0
5 4 4 4 4 4 3 3 3 3 3 2 2 2 1 1 1 1 0 1 0 0 0 1 1 1 1 1 1 1 2 2 2 2 2 1 1 1 0 0 -0 0 0
4 4 4 4 4 3 3 3 3 3 3 2 2 2 1 1 1 0 0 -0 -0 0 0 0 1 1 1 1 1 1 1 1 1 2 1 1 1 1 0 -0 -0 -0 -0
4 4 4 4 4 3 3 3 3 3 3 2 2 2 1 1 1 0 -0 -0 -0 -0 -0 0 1 1 1 2 2 2 2 2 2 2 2 1 1 1 0 0 -0 -0 -0
4 4 4 4 3 3 3 3 3 3 3 3 2 2 1 1 0 -0 -0 -1 -1 -1 -0 0 1 1 2 2 2 2 2 2 2 2 2 1 1 1 0 0 0 0 0
4 4 4 4 3 3 3 3 3 3 3 2 2 2 1 1 0 0 -0 -0 -0 -0 0 1 1 2 2 2 2 2 2 2 2 2 2 1 1 1 1 0 0 0 0
4 4 4 4 4 4 4 3 3 3 3 2 2 1 1 0 0 -0 -0 -0 -0 0 1 1 1 2 2 3 3 3 3 3 3 2 2 2 1 1 1 1 0 0 0
5 5 5 5 4 4 4 4 3 3 2 2 1 1 0 0 -0 -0 -0 -0 -0 0 1 1 1 2 2 3 3 3 3 3 3 3 2 2 2 1 1 1 1 1 0
5 5 5 5 5 5 4 4 3 3 2 2 1 1 0 0 -0 -0 -0 0 0 0 1 1 1 2 2 3 3 3 3 3 3 3 3 2 2 2 1 1 1 1 1
5 5 5 5 5 5 5 4 4 3 2 1 1 0 0 -0 -0 -0 -0 0 0 1 1 1 2 2 2 3 3 3 4 4 4 3 3 3 3 2 2 2 2 1 1
5 5 5 5 5 5 5 4 4 3 2 1 1 0 -0 -0 -0 -0 0 0 1 1 1 2 2 2 3 3 3 4 4 4 4 4 4 4 3 3 3 3 3 2 2
5 5 5 5 5 5 4 4 3 3 2 1 1 0 0 -0 -0 0 0 0 1 1 2 2 2 3 3 3 4 4 4 4 4 4 4 4 4 4 4 4 4 3 3
6 5 5 5 5 4 4 4 3 2 2 1 1 1 0 0 0 0 0 1 1 1 2 2 3 3 3 4 4 4 4 4 4 4 5 5 5 5 5 5 5 5 4
6 6 5 5 4 4 4 3 3 2 2 1 1 1 0 0 0 1 1 1 1 2 2 2 3 3 3 4 4 4 4 4 4 4 5 5 5 5 5 5 5 5 5
6 6 5 5 4 4 4 3 3 2 2 2 1 1 1 1 1 1 1 1 2 2 2 3 3 3 4 4 4 4 4 4 5 5 5 5 5 5 5 5 5 5 6
6 5 5 5 4 4 4 3 3 3 2 2 2 1 1 1 1 1 1 2 2 2 2 3 3 4 4 4 4 4 5 5 5 5 5 5 5 5 5 5 6 6 6
6 5 5 4 4 4 4 4 3 3 2 2 1 1 1 1 1 1 1 2 2 2 2 3 3 4 4 4 5 5 5 5 5 5 5 5 5 5 6 6 6 6 6
5 5 5 4 4 4 4 3 3 2 2 2 1 1 1 1 1 1 1 2 2 2 2 3 3 4 4 4 4 5 5 5 5 5 5 5 5 5 6 6 6 6 6

GEFSGL_850_meantemp_036.txt.gz
Temperature
13 13 12 12 11 11 11 10 10 9 9 8 8 8 8 7 7 7 7 7 6 6 6 6 6 5 5 5 5 4 4 3 3 3 3 3 3 3 3 3 3 3 2
12 11 11 10 10 10 9 9 8 8 8 8 7 7 7 7 7 6 6 6 6 5 5 5 5 5 4 4 4 4 3 3 2 2 2 2 3 2 2 2 2 2 2
10 10 10 9 9 8 8 8 8 7 7 7 7 7 6 6 6 6 5 5 5 5 5 4 4 4 4 3 3 2 2 2 1 1 1 2 2 2 2 2 2 2 2
9 9 9 8 8 8 7 7 7 7 7 6 6 6 6 5 5 5 5 4 4 4 4 4 3 3 3 2 2 2 1 1 1 1 1 2 2 2 1 1 1 1 1
8 8 8 7 7 7 7 6 6 6 6 6 5 5 5 4 4 4 4 4 4 4 3 3 3 2 2 2 1 1 1 1 1 1 1 1 1 1 1 1 1 1 1
7 7 7 7 6 6 6 6 5 5 5 5 4 4 4 4 3 3 3 3 3 3 3 2 2 2 1 1 1 1 1 1 1 1 1 1 1 1 1 1 1 0 0
7 6 6 6 6 5 5 5 5 4 4 4 4 3 3 3 3 2 2 3 2 2 2 1 1 1 1 1 1 1 1 1 1 1 1 1 1 1 1 1 0 0 -0
6 6 5 5 5 5 4 4 4 4 3 3 3 3 2 2 2 2 2 2 1 1 1 1 1 1 1 1 1 1 2 2 2 2 1 1 1 1 1 0 0 -0 0
5 5 5 5 4 4 4 4 3 3 3 3 3 2 2 2 1 1 1 1 1 1 1 1 0 1 1 1 1 2 2 2 2 2 2 1 1 1 1 0 0 -0 -0
5 4 4 4 4 4 3 3 3 3 3 2 2 2 2 1 1 1 1 1 1 1 0 0 0 1 1 1 1 2 2 2 2 2 2 2 1 1 1 0 0 -0 -0
4 4 4 4 4 3 3 3 3 3 3 2 2 2 2 1 1 1 0 0 0 0 0 1 1 1 1 1 2 2 2 2 2 2 2 2 1 1 1 1 0 -0 -0
4 4 4 4 3 3 3 3 3 3 3 2 2 2 1 1 1 0 0 0 0 0 0 1 1 1 2 2 2 2 2 2 2 2 2 2 1 1 1 1 0 0 -0
4 4 4 4 3 3 3 3 3 3 3 2 2 2 1 1 0 0 0 0 0 0 0 1 1 2 2 2 2 2 2 2 2 2 2 2 1 1 1 1 1 1 0
4 4 4 4 4 3 3 3 3 3 3 2 2 2 1 1 0 0 0 0 0 0 1 1 1 2 2 3 3 3 3 3 2 2 2 2 2 1 1 1 1 1 1
4 4 4 4 4 4 3 3 3 3 3 2 2 1 1 1 0 0 0 0 0 1 1 1 2 2 3 3 3 3 3 3 3 3 3 2 2 2 2 2 1 1 1
4 4 4 4 4 4 4 3 3 3 2 2 1 1 1 0 -0 -0 -0 0 0 1 1 2 2 2 3 3 3 3 3 3 3 3 3 3 3 3 2 2 2 2 1
5 5 5 4 4 4 4 4 3 3 2 2 1 1 0 -0 -0 -0 0 0 1 1 1 2 2 2 3 3 3 4 4 4 4 4 4 4 3 3 3 3 3 2 2
5 5 5 5 4 4 4 4 3 3 2 1 1 0 -0 -0 -0 -0 0 0 1 1 2 2 2 3 3 3 4 4 4 4 4 4 4 4 4 4 4 4 4 3 3
5 5 5 5 4 4 4 3 3 2 2 1 1 0 -0 -0 -0 0 0 1 1 1 2 2 3 3 3 4 4 4 4 4 4 4 4 4 4 5 5 4 4 4 4
5 5 5 5 4 4 3 3 3 2 1 1 0 0 0 0 0 0 1 1 1 2 2 3 3 3 3 4 4 4 4 4 4 5 5 5 5 5 5 5 5 5 4
5 5 5 4 4 4 3 3 2 2 1 1 0 0 0 0 0 1 1 1 2 2 2 3 3 3 4 4 4 4 4 4 5 5 5 5 5 5 5 5 5 5 5
5 5 5 4 4 3 3 3 2 2 2 1 1 0 0 0 1 1 1 1 2 2 3 3 3 4 4 4 4 4 5 5 5 5 5 5 5 5 5 5 5 5 5
5 5 4 4 4 3 3 3 2 2 2 1 1 1 1 1 1 1 1 2 2 2 3 3 3 4 4 4 4 4 4 5 5 5 5 5 5 5 5 5 5 5 5
5 5 4 4 4 4 3 3 2 2 2 1 1 1 1 1 1 1 2 2 2 2 3 3 3 4 4 4 4 4 4 5 5 5 5 5 5 5 5 5 5 5 5
5 4 4 4 4 3 3 3 2 2 2 1 1 1 1 1 1 1 2 2 2 2 3 3 4 4 4 4 4 4 4 4 4 4 5 5 5 5 5 5 5 5 5
4 4 4 4 4 3 3 3 2 2 1 1 1 1 1 1 1 1 2 2 2 2 3 3 3 4 4 4 4 4 4 4 4 4 4 4 5 5 5 5 5 5 4

GEFSGL_850_meantemp_042.txt.gz
Temperature
13 12 12 12 12 12 11 10 10 9 9 8 8 8 8 7 7 7 7 6 6 6 6 6 6 5 5 5 4 4 4 3 3 3 3 3 3 3 3 3 3 3 3
11 11 11 11 10 10 9 9 8 8 8 7 7 7 7 6 6 6 6 6 5 5 5 5 5 5 4 4 3 3 3 2 2 2 3 3 3 3 2 2 3 2 2
10 10 10 9 9 8 8 8 7 7 7 6 6 6 6 5 5 5 5 5 5 5 5 4 4 4 4 3 3 2 2 2 1 1 2 2 3 3 2 2 2 2 2
9 9 8 8 8 7 7 7 6 6 6 6 5 5 5 5 5 4 4 4 4 4 4 4 3 3 3 2 2 2 2 2 1 1 2 2 2 2 2 2 2 2 2
8 7 7 7 7 6 6 6 6 5 5 5 5 4 4 4 4 4 4 4 4 3 3 3 3 2 2 2 1 1 1 1 1 2 2 2 2 2 1 1 1 1 1
7 6 6 6 6 6 5 5 5 4 4 4 4 3 3 3 3 3 3 3 3 3 3 2 2 2 1 1 1 1 1 1 1 1 2 2 2 1 1 1 1 1 0
6 6 5 5 5 5 4 4 4 4 3 3 3 3 2 2 2 2 2 2 2 2 2 2 2 1 1 1 1 1 1 1 1 1 1 2 1 1 1 1 1 0 0
5 5 5 4 4 4 4 4 3 3 3 3 2 2 2 2 1 1 1 1 1 1 1 1 1 1 1 1 2 2 2 2 2 2 2 2 1 1 1 1 1 1 1
4 4 4 4 4 4 3 3 3 3 2 2 2 2 2 2 1 1 1 1 1 1 1 1 1 1 1 1 2 2 2 2 2 2 2 2 2 1 1 1 1 0 0
4 4 4 4 3 3 3 3 3 3 2 2 2 2 2 1 1 1 1 1 1 1 1 1 1 1 1 1 2 2 2 2 2 2 2 2 2 1 1 1 1 0 0
4 4 4 3 3 3 3 3 3 3 2 2 2 2 2 1 1 1 0 0 1 1 1 1 1 1 2 2 2 2 2 2 2 2 2 2 2 2 1 1 1 1 1
4 3 3 3 3 3 3 3 3 3 2 2 2 2 1 1 1 0 0 0 0 0 1 1 1 2 2 2 2 2 2 2 2 2 2 2 2 2 2 2 1 1 1
4 4 3 3 3 3 3 3 3 3 2 2 2 2 1 1 0 0 0 0 0 0 1 1 1 2 2 2 2 2 3 3 3 3 3 3 2 2 2 2 2 2 1
4 4 4 3 3 3 3 3 3 3 2 2 2 1 1 1 0 0 0 0 0 0 1 1 1 2 2 2 3 3 3 3 3 3 3 3 3 3 3 3 3 2 2
4 4 4 4 4 4 3 3 3 3 2 2 1 1 1 0 -0 -0 -0 0 0 1 1 1 2 2 2 3 3 3 3 3 4 4 4 4 4 4 4 3 3 3 2
4 4 4 4 4 4 4 3 3 3 2 2 1 0 0 -0 -0 -0 -0 0 0 1 1 2 2 2 3 3 3 3 4 4 4 4 4 4 4 4 4 4 4 3 3
4 4 4 4 4 4 4 3 3 2 2 1 1 0 -0 -0 -0 0 0 0 1 1 1 2 2 3 3 3 3 4 4 4 4 4 4 4 4 4 4 4 4 4 3
5 5 5 4 4 4 4 3 3 2 1 1 1 0 0 0 0 0 0 1 1 1 2 2 2 3 3 3 4 4 4 4 4 4 4 4 5 5 5 4 4 4 4
5 5 5 4 4 4 3 3 2 2 1 1 0 0 0 0 0 0 1 1 1 2 2 2 3 3 3 3 4 4 4 4 4 4 5 5 5 5 5 5 4 4 4
5 5 5 4 4 3 3 2 2 1 1 1 0 0 0 0 1 1 1 1 2 2 2 3 3 3 3 4 4 4 4 4 4 4 5 5 5 5 5 4 4 4 4
5 5 5 4 4 3 3 2 2 1 1 1 0 0 0 1 1 1 1 2 2 2 3 3 3 3 3 4 4 4 4 4 4 4 5 5 5 5 5 4 4 4 4
5 5 4 4 3 3 3 2 2 1 1 1 1 1 1 1 1 1 1 2 2 2 3 3 3 3 4 4 4 4 4 4 4 4 4 5 5 5 5 4 4 4 4
5 4 4 4 3 3 3 2 2 2 1 1 1 1 1 1 1 1 1 2 2 2 2 3 3 3 3 4 4 4 4 4 4 4 4 4 5 5 4 4 4 4 4
4 4 4 4 3 3 3 2 2 2 1 1 1 1 1 1 1 1 1 2 2 2 2 3 3 3 3 4 4 4 4 4 4 4 4 4 4 4 4 4 4 4 3
4 4 4 4 3 3 3 2 2 1 1 1 1 1 1 1 1 1 1 2 2 2 2 3 3 3 3 3 3 4 4 4 4 4 4 4 4 4 4 4 4 3 3
4 4 4 4 3 3 3 2 2 1 1 1 1 1 1 1 1 1 1 2 2 2 3 3 3 3 3 3 3 4 4 4 4 4 4 4 4 4 4 4 3 3 3

GEFSGL_850_meantemp_048.txt.gz
Temperature
12 12 12 11 11 11 11 10 10 9 9 8 8 8 8 7 7 7 7 7 6 6 6 6 6 6 6 6 6 6 6 6 6 6 6 5 4 4 4 4 4 3 4
10 10 10 10 9 9 9 8 8 7 7 7 7 7 6 6 6 6 6 6 6 5 5 5 5 5 5 4 4 4 4 4 4 4 5 5 4 4 3 3 3 4 3
9 9 8 8 8 7 7 7 6 6 6 6 6 6 6 5 5 5 5 5 5 4 4 4 4 3 3 4 3 4 4 4 3 4 4 4 4 4 3 3 3 3 3
8 7 7 7 7 6 6 6 6 6 6 5 5 5 5 4 4 4 4 4 4 3 3 3 3 3 3 3 3 3 3 3 3 3 4 4 4 4 4 3 3 3 3
7 7 6 6 6 6 5 5 5 5 5 5 4 4 4 4 4 4 3 3 3 3 3 2 2 2 3 2 2 2 2 3 3 3 4 4 4 4 3 3 3 3 3
6 6 5 5 5 5 5 4 4 4 4 3 3 3 3 3 3 3 3 2 2 2 2 2 2 2 2 2 2 2 2 2 2 2 3 3 3 3 3 3 2 3 3
5 5 5 5 4 4 4 4 3 3 3 3 2 2 2 3 3 3 2 2 2 1 1 1 2 2 2 1 1 2 2 2 2 2 2 3 3 3 3 2 2 2 2
5 4 4 4 4 3 3 3 3 3 3 3 2 2 2 2 2 2 2 2 2 1 1 1 1 1 1 2 2 2 2 3 2 3 3 3 3 3 3 2 2 2 3
4 4 4 4 4 3 3 3 3 3 3 3 3 2 2 2 2 2 2 1 2 2 1 1 1 1 1 2 2 2 3 3 3 3 3 3 3 3 3 2 2 3 3
4 4 4 4 4 3 3 3 3 3 3 3 3 2 2 2 2 2 2 1 2 2 2 2 2 2 2 2 2 2 3 3 3 3 3 3 3 3 3 3 3 3 3
4 4 4 4 3 3 3 3 3 3 3 3 3 2 2 2 1 2 1 1 1 1 2 2 2 2 2 2 2 3 3 3 3 4 4 4 4 4 4 3 3 3 3
4 4 4 4 4 4 3 3 3 3 4 3 3 3 2 2 1 1 1 1 1 1 2 2 2 2 2 3 3 3 3 3 3 4 4 4 4 4 4 4 4 4 3
4 4 4 4 4 4 4 4 4 4 4 4 3 3 2 2 1 1 1 1 1 1 2 2 2 2 3 3 3 3 4 4 4 4 4 5 5 5 4 4 4 4 4
4 4 4 4 4 4 4 4 4 4 4 3 3 3 2 2 1 1 1 1 1 1 2 2 2 3 3 3 4 4 4 4 4 4 4 5 5 5 5 5 5 4 4
4 4 5 5 5 4 4 4 3 3 3 2 2 2 1 1 1 1 1 1 1 1 2 2 3 3 3 4 4 4 4 4 4 4 5 5 5 5 5 5 5 4 4
5 5 5 5 5 4 4 3 3 3 2 2 2 1 1 1 1 1 1 1 2 2 2 3 3 3 4 4 4 4 4 4 5 5 5 5 5 5 5 5 5 5 4
5 5 5 5 5 5 4 4 3 3 2 2 1 1 1 1 1 1 1 2 2 2 2 3 3 3 4 4 4 4 4 5 5 5 5 5 5 5 5 5 5 5 5
5 5 5 5 5 5 4 4 4 3 2 2 1 1 1 1 1 2 2 2 2 3 3 3 3 3 4 4 4 4 4 5 5 5 5 5 5 5 5 5 5 5 5
5 5 5 5 5 4 4 4 3 3 3 2 1 1 1 1 2 2 2 2 3 3 3 3 3 4 4 4 4 4 4 5 5 5 5 5 5 5 5 6 6 5 5
5 5 5 5 5 4 4 4 3 3 2 2 2 2 2 2 2 2 2 3 3 3 3 3 3 3 4 4 4 4 4 5 5 5 5 5 5 5 6 6 6 6 5
6 5 4 5 5 4 4 4 3 3 2 2 2 2 2 2 2 2 2 3 3 3 3 3 3 4 4 4 4 4 4 4 4 5 5 5 5 5 6 6 6 6 5
6 5 5 5 4 4 4 3 3 3 2 2 2 2 2 2 2 2 2 2 2 2 3 3 3 3 3 3 3 4 4 4 4 4 4 5 5 5 6 6 5 5 5
5 5 5 5 4 4 4 4 3 3 3 2 2 2 2 2 2 2 2 2 2 2 3 3 3 3 3 3 3 3 3 3 4 4 4 4 5 5 5 5 5 5 5
6 5 5 5 4 4 4 4 3 3 3 2 2 2 2 2 2 2 2 2 2 2 2 2 3 3 3 3 3 3 3 4 4 4 4 4 5 5 5 5 5 5 5
6 5 5 5 5 4 4 4 3 3 2 2 2 2 2 2 2 2 2 2 2 2 2 2 2 3 3 3 3 3 3 4 4 4 4 5 5 5 5 5 5 5 5
6 5 5 5 5 4 4 4 3 3 3 2 2 2 2 2 2 2 2 2 2 2 2 2 2 2 3 3 3 3 3 4 4 4 4 4 4 4 5 5 5 5 5

GEFSGL_850_meantemp_054.txt.gz
Temperature
11 11 11 11 11 11 10 10 9 9 9 8 8 8 8 8 7 7 7 7 7 7 7 7 6 6 6 6 6 6 6 6 6 6 6 6 6 6 6 6 5 5 5
10 10 10 10 9 9 9 8 8 8 7 7 7 7 7 7 6 6 6 6 6 6 6 5 5 5 5 5 5 5 5 5 5 5 5 6 6 6 5 5 5 5 5
9 9 9 8 8 8 7 7 7 7 7 6 6 6 6 6 6 5 5 5 5 5 4 4 4 4 4 4 4 4 4 4 4 5 5 5 5 5 5 5 5 5 5
8 8 7 7 7 7 6 6 6 6 6 6 6 5 5 5 5 5 4 4 4 4 4 4 4 4 4 4 4 4 4 4 4 4 4 5 5 5 5 5 5 5 5
7 7 6 6 6 6 6 5 5 5 5 5 5 5 5 5 4 4 4 4 4 4 4 4 4 4 4 4 4 4 4 4 4 4 4 4 5 5 5 4 4 4 4
6 6 6 6 5 5 5 5 5 4 4 4 4 4 4 4 4 4 4 4 4 3 3 3 4 4 3 3 3 3 3 3 3 4 4 4 4 4 4 4 4 4 4
6 5 5 5 5 5 5 4 4 4 4 4 4 4 4 4 4 4 4 4 3 3 3 3 3 3 3 3 3 3 3 3 3 3 4 4 4 4 4 4 4 4 4
6 5 5 5 5 5 4 4 4 4 4 4 4 4 4 4 4 4 4 4 3 3 3 3 3 3 3 3 3 3 4 4 4 4 4 4 4 4 4 4 4 4 4
6 5 5 5 5 5 5 4 4 4 4 4 4 4 4 4 4 4 4 3 3 3 3 3 3 3 3 3 3 4 4 4 4 4 4 4 4 5 4 4 4 4 4
5 5 5 5 5 5 5 5 5 5 5 4 4 4 4 4 3 3 3 3 3 3 3 3 3 3 3 3 3 4 4 4 4 5 5 5 5 5 5 5 5 4 4
5 5 5 5 5 5 5 5 5 5 5 5 4 4 4 3 3 3 3 3 3 3 3 3 3 3 3 4 4 4 4 4 5 5 5 5 5 5 5 5 5 5 4
5 5 5 5 5 5 5 5 5 5 5 5 4 4 4 3 3 3 2 2 2 3 3 3 3 4 4 4 4 4 4 4 5 5 5 5 5 5 5 5 5 5 5
5 5 5 5 5 5 5 5 5 5 5 5 4 4 4 3 3 3 3 2 2 3 3 3 4 4 4 4 4 4 5 5 5 5 5 5 6 6 6 6 5 5 5
5 5 5 5 5 5 5 5 5 5 4 4 4 4 3 3 3 3 3 3 3 3 4 4 4 4 4 4 4 5 5 5 5 5 5 5 6 6 6 6 6 6 5
6 6 6 6 5 5 5 5 4 4 4 4 3 3 3 3 3 3 3 3 4 4 4 4 4 4 4 4 5 5 5 5 5 5 6 6 6 6 6 6 6 6 5
6 6 6 6 6 5 5 5 4 4 4 4 3 3 3 3 3 3 4 4 4 4 4 4 4 4 4 5 5 5 5 5 5 6 6 6 6 6 6 6 6 6 5
6 6 6 6 6 6 5 5 4 4 4 3 3 3 3 3 3 4 4 4 4 4 4 4 4 4 4 5 5 5 5 6 6 6 6 6 6 6 6 6 6 6 6
6 6 6 6 6 6 5 5 5 4 4 3 3 3 3 4 4 4 4 4 4 4 4 4 4 5 5 5 5 5 5 5 5 6 6 6 6 6 6 7 7 6 6
6 6 6 6 6 6 5 5 5 4 4 4 3 3 4 4 4 4 4 4 4 4 4 4 5 5 5 5 5 5 5 5 5 5 6 6 6 6 7 7 7 7 6
6 6 6 6 6 6 5 5 5 4 4 4 4 4 4 4 4 4 4 4 4 4 4 4 4 5 5 5 5 5 5 5 5 5 5 6 6 6 7 7 7 7 6
7 6 6 6 6 6 5 5 5 4 4 4 4 4 4 4 4 4 4 4 4 4 4 4 4 4 4 4 4 4 4 4 4 5 5 6 6 6 6 7 7 6 6
7 7 7 6 6 6 5 5 5 4 4 4 4 4 4 4 4 4 4 4 3 3 3 3 4 4 3 3 4 4 4 4 4 5 5 5 6 6 6 6 6 6 6
7 7 7 6 6 5 5 5 5 5 4 4 4 4 4 4 4 3 3 3 3 3 3 3 3 3 3 3 3 4 4 4 4 5 5 5 6 6 6 6 6 6 6
8 7 7 7 6 6 5 5 5 5 4 4 4 4 4 4 4 3 3 3 3 3 3 3 3 3 3 3 4 4 4 4 4 5 5 5 6 6 6 6 6 6 6
8 7 7 7 6 6 5 5 5 4 4 4 4 4 4 4 4 3 3 3 3 3 3 3 3 3 3 3 4 4 4 4 4 5 5 5 5 5 6 6 6 6 6
8 7 7 7 6 6 5 5 5 4 4 4 4 4 4 4 4 3 3 3 3 3 3 2 2 3 3 3 4 4 4 4 4 5 5 5 5 5 5 6 6 6 6

GEFSGL_850_meantemp_060.txt.gz
Temperature
10 10 11 10 10 10 10 9 9 9 9 8 8 8 8 8 7 7 7 7 7 7 6 6 6 6 6 6 6 6 6 6 6 5 5 5 5 5 5 5 5 5 5
9 9 9 9 9 9 8 8 8 7 7 7 7 7 7 7 6 6 6 6 6 6 5 5 5 5 5 5 5 5 5 5 5 5 5 5 5 5 5 5 5 5 5
8 8 8 8 7 7 7 7 7 7 7 6 6 6 6 6 6 5 5 5 5 5 4 4 4 4 4 4 4 4 4 4 4 4 4 4 4 4 4 5 5 5 5
7 7 7 7 6 6 6 6 6 6 6 6 6 6 5 5 5 5 5 4 4 4 4 4 4 4 4 4 4 4 4 4 4 4 4 4 4 4 4 4 5 5 5
7 6 6 6 5 5 5 5 5 5 5 5 5 5 5 5 5 4 4 4 4 4 3 3 3 3 3 3 3 3 3 4 4 4 4 4 4 4 4 4 4 5 5
6 5 5 5 5 5 5 5 5 5 5 5 5 5 5 5 4 4 4 4 3 3 3 3 3 3 3 3 3 3 3 3 4 4 4 4 4 4 4 4 4 4 4
5 5 5 5 5 5 5 5 4 4 4 4 4 4 4 4 4 4 4 3 3 3 3 3 3 3 3 3 3 3 3 3 3 4 4 4 4 4 4 4 4 4 4
5 5 5 5 5 5 4 4 4 4 4 4 4 4 4 4 4 4 3 3 3 3 3 3 3 3 3 3 3 3 4 4 4 4 4 4 4 4 4 4 4 4 5
5 5 5 5 5 5 4 4 4 4 4 4 4 4 4 3 3 3 3 3 3 3 3 3 3 3 3 3 4 4 4 4 4 4 4 4 5 5 5 5 5 5 5
5 5 5 5 5 5 5 4 4 4 4 4 4 4 3 3 3 3 3 3 3 3 3 3 3 4 4 4 4 4 4 4 4 5 5 5 5 5 5 5 5 5 4
5 5 5 5 5 5 5 5 5 4 4 4 4 3 3 3 3 3 3 3 3 3 4 4 4 4 4 4 4 4 4 4 4 4 5 5 5 5 5 5 5 5 5
5 5 5 5 5 5 5 5 5 4 4 4 4 3 3 3 3 3 3 3 3 4 4 4 4 4 4 4 4 4 4 4 5 5 5 5 5 5 5 5 5 5 5
5 5 5 5 5 5 5 5 4 4 4 4 3 3 3 3 3 3 3 3 4 4 4 4 4 4 4 4 4 4 4 5 5 5 5 5 5 5 5 5 5 5 5
5 5 5 5 5 5 5 4 4 4 4 4 3 3 3 3 3 3 3 4 4 4 4 4 4 4 4 4 5 5 5 5 5 5 5 5 5 6 6 6 5 5 5
5 5 5 5 5 5 5 4 4 4 4 4 4 3 3 3 4 4 4 4 4 4 4 4 4 4 5 5 5 5 5 5 5 5 5 5 6 6 6 6 6 5 5
5 5 5 5 5 5 5 4 4 4 4 4 4 3 4 4 4 4 4 4 4 4 4 4 4 4 4 4 5 5 5 5 5 5 5 6 6 6 6 6 6 6 5
6 6 6 5 5 5 5 4 4 4 4 4 3 3 4 4 4 4 4 4 4 4 4 4 4 4 4 4 4 5 5 5 5 5 5 6 6 6 6 6 6 6 6
6 6 6 6 5 5 5 4 4 4 4 4 4 4 4 4 4 4 4 4 4 4 4 4 4 4 4 4 4 4 4 5 5 5 5 6 6 6 6 6 6 6 6
6 6 6 6 5 5 5 5 4 4 4 4 4 4 4 4 4 4 4 4 4 4 4 4 4 4 4 4 4 4 4 4 5 5 5 6 6 6 6 6 6 6 6
6 6 6 6 5 5 5 5 4 4 4 4 4 4 4 4 4 4 4 4 4 4 4 4 4 3 4 4 4 4 4 4 5 5 5 6 6 6 6 6 6 6 6
6 6 6 6 5 5 5 5 4 4 4 4 4 4 4 4 4 4 3 3 3 3 3 3 3 3 3 3 4 4 4 4 5 5 5 6 6 6 6 6 6 6 6
6 6 6 6 5 5 5 5 4 4 4 4 4 4 4 4 3 3 3 3 3 3 3 3 3 3 3 3 3 4 4 4 5 5 5 5 6 6 6 6 6 6 6
7 6 6 6 5 5 5 5 4 4 4 4 4 4 4 4 3 3 3 3 3 3 3 3 3 3 3 3 3 4 4 4 4 5 5 5 5 5 6 6 6 6 6
7 7 6 6 6 5 5 5 4 4 4 4 4 4 4 3 3 3 3 3 3 3 3 3 3 3 3 3 3 4 4 4 4 4 5 5 5 5 5 5 5 5 6
7 7 6 6 6 5 5 5 4 4 4 4 4 4 4 3 3 3 3 3 3 3 3 2 3 3 3 3 3 4 4 4 4 4 4 5 5 5 5 5 5 5 5
7 7 7 6 6 5 5 5 5 4 4 4 4 4 4 3 3 3 3 3 3 3 2 2 2 3 3 3 3 3 4 4 4 4 4 4 4 5 5 5 5 5 5